| time (UTC) | temp F | wind direction | speed knots | gust knots | rain 1hr in | rain 24hr in | rain mn in | humidity % | barometer mb |
| 20260506181517 | 46 | 249 | 13.0 | 21.7 | 0.00 | 0.00 | 0.00 | 56 | 1017.0 |
| 20260506180024 | 45 | 239 | 17.4 | 22.6 | 0.00 | 0.00 | 0.00 | 55 | 1017.1 |
| 20260506174516 | 45 | 249 | 14.8 | 20.0 | 0.00 | 0.00 | 0.00 | 53 | 1017.3 |
| 20260506173013 | 45 | 245 | 13.0 | 19.1 | 0.00 | 0.00 | 0.00 | 55 | 1017.2 |
| 20260506171513 | 45 | 267 | 13.0 | 19.1 | 0.00 | 0.00 | 0.00 | 55 | 1017.1 |
| 20260506170010 | 45 | 253 | 14.8 | 19.1 | 0.00 | 0.00 | 0.00 | 56 | 1017.2 |
| 20260506164512 | 45 | 258 | 13.0 | 20.9 | 0.00 | 0.00 | 0.00 | 58 | 1017.2 |
| 20260506163010 | 44 | 252 | 14.8 | 20.9 | 0.00 | 0.00 | 0.00 | 56 | 1017.2 |
| 20260506161511 | 44 | 253 | 12.2 | 22.6 | 0.00 | 0.00 | 0.00 | 58 | 1017.1 |
| 20260506160007 | 44 | 247 | 11.3 | 18.2 | 0.00 | 0.00 | 0.00 | 54 | 1017.0 |
| 20260506154505 | 44 | 254 | 12.2 | 17.4 | 0.00 | 0.00 | 0.00 | 60 | 1017.1 |
| 20260506153005 | 44 | 252 | 11.3 | 19.1 | 0.00 | 0.00 | 0.00 | 58 | 1017.0 |
| 20260506151504 | 44 | 272 | 6.1 | 14.8 | 0.00 | 0.00 | 0.00 | 57 | 1017.0 |
| 20260506150004 | 43 | 248 | 9.6 | 14.8 | 0.00 | 0.00 | 0.00 | 57 | 1016.9 |
| 20260506144501 | 43 | 263 | 8.7 | 15.6 | 0.00 | 0.00 | 0.00 | 58 | 1017.0 |
| 20260506143003 | 42 | 254 | 4.3 | 9.6 | 0.00 | 0.00 | 0.00 | 61 | 1017.0 |
| 20260506141605 | 41 | 241 | 4.3 | 10.4 | 0.00 | 0.00 | 0.00 | 62 | 1017.1 |
| 20260506140122 | 41 | 261 | 3.5 | 8.7 | 0.00 | 0.00 | 0.00 | 65 | 1017.0 |
| 20260506134600 | 40 | 248 | 3.5 | 6.1 | 0.00 | 0.00 | 0.00 | 64 | 1017.0 |
| 20260506133104 | 39 | 259 | 0.9 | 7.0 | 0.00 | 0.00 | 0.00 | 64 | 1016.9 |
| 20260506131557 | 39 | 257 | 1.7 | 7.8 | 0.00 | 0.00 | 0.00 | 67 | 1016.8 |
| 20260506130055 | 39 | 266 | 2.6 | 8.7 | 0.00 | 0.00 | 0.00 | 67 | 1016.8 |
| 20260506124556 | 38 | 259 | 0.9 | 7.8 | 0.00 | 0.00 | 0.00 | 69 | 1016.4 |
| 20260506123052 | 38 | 259 | 2.6 | 7.0 | 0.00 | 0.00 | 0.00 | 68 | 1016.4 |
| 20260506121551 | 38 | 250 | 3.5 | 8.7 | 0.00 | 0.00 | 0.00 | 69 | 1016.3 |
| 20260506120049 | 38 | 256 | 4.3 | 8.7 | 0.00 | 0.00 | 0.00 | 69 | 1016.0 |
| 20260506114553 | 38 | 259 | 3.5 | 8.7 | 0.00 | 0.00 | 0.00 | 69 | 1015.6 |
| 20260506113049 | 37 | 259 | 5.2 | 8.7 | 0.00 | 0.00 | 0.00 | 70 | 1015.6 |
| 20260506111542 | 37 | 265 | 2.6 | 7.0 | 0.00 | 0.00 | 0.00 | 69 | 1015.3 |
| 20260506110039 | 37 | 259 | 3.5 | 8.7 | 0.00 | 0.00 | 0.00 | 68 | 1015.1 |
| 20260506104545 | 38 | 258 | 3.5 | 7.8 | 0.00 | 0.00 | 0.00 | 68 | 1015.1 |
| 20260506103038 | 38 | 251 | 4.3 | 7.8 | 0.00 | 0.00 | 0.00 | 68 | 1015.1 |
| 20260506101544 | 38 | 260 | 2.6 | 6.1 | 0.00 | 0.00 | 0.00 | 68 | 1014.9 |
| 20260506100033 | 38 | 263 | 1.7 | 7.8 | 0.00 | 0.00 | 0.00 | 68 | 1014.7 |
| 20260506094533 | 38 | 257 | 5.2 | 8.7 | 0.00 | 0.00 | 0.00 | 67 | 1015.0 |
| 20260506093029 | 38 | 255 | 4.3 | 7.0 | 0.00 | 0.00 | 0.00 | 68 | 1014.9 |
| 20260506091528 | 38 | 268 | 3.5 | 7.8 | 0.00 | 0.00 | 0.00 | 68 | 1014.7 |
| 20260506090024 | 38 | 288 | 2.6 | 7.8 | 0.00 | 0.00 | 0.00 | 67 | 1014.5 |
| 20260506084533 | 38 | 288 | 4.3 | 7.8 | 0.00 | 0.00 | 0.00 | 68 | 1014.4 |
| 20260506083023 | 39 | 293 | 5.2 | 7.8 | 0.00 | 0.00 | 0.00 | 68 | 1014.3 |
| 20260506081523 | 39 | 291 | 3.5 | 7.8 | 0.00 | 0.00 | 0.00 | 67 | 1014.2 |
| 20260506073012 | 40 | 274 | 5.2 | 8.7 | 0.00 | 0.00 | 0.00 | 66 | 1014.0 |
| 20260506071510 | 40 | 279 | 6.1 | 0.0 | 0.00 | 0.00 | 0.00 | 64 | 1014.1 |
| 20260506061613 | 42 | 278 | 5.2 | 9.6 | 0.00 | 0.00 | 0.00 | 61 | 1013.7 |
| 20260506044540 | 44 | 288 | 4.3 | 10.4 | 0.00 | 0.00 | 0.00 | 58 | 1012.8 |
| 20260506043039 | 45 | 290 | 4.3 | 9.6 | 0.00 | 0.00 | 0.00 | 56 | 1012.8 |
| 20260506041539 | 45 | 289 | 6.1 | 10.4 | 0.00 | 0.00 | 0.00 | 56 | 1012.7 |
| 20260506040040 | 46 | 262 | 5.2 | 9.6 | 0.00 | 0.00 | 0.00 | 54 | 1012.7 |
| 20260506034536 | 46 | 278 | 6.1 | 11.3 | 0.00 | 0.00 | 0.00 | 53 | 1012.7 |
| 20260506033040 | 46 | 285 | 6.1 | 11.3 | 0.00 | 0.00 | 0.00 | 52 | 1012.6 |
| 20260506031535 | 47 | 271 | 5.2 | 9.6 | 0.00 | 0.00 | 0.00 | 52 | 1012.7 |
| 20260506030035 | 47 | 277 | 7.0 | 10.4 | 0.00 | 0.00 | 0.00 | 52 | 1012.6 |
| 20260506024534 | 48 | 287 | 6.1 | 10.4 | 0.00 | 0.00 | 0.00 | 50 | 1012.4 |
| 20260506023101 | 48 | 271 | 5.2 | 10.4 | 0.00 | 0.00 | 0.00 | 50 | 1012.2 |
| 20260506021532 | 49 | 272 | 7.0 | 12.2 | 0.00 | 0.00 | 0.00 | 50 | 1012.0 |
| 20260506020029 | 49 | 263 | 7.0 | 12.2 | 0.00 | 0.00 | 0.00 | 50 | 1011.8 |
| 20260506014523 | 49 | 270 | 7.0 | 10.4 | 0.00 | 0.00 | 0.00 | 46 | 1011.4 |
| 20260506013020 | 49 | 278 | 2.6 | 8.7 | 0.00 | 0.00 | 0.00 | 45 | 1011.3 |
| 20260506011518 | 50 | 289 | 3.5 | 8.7 | 0.00 | 0.00 | 0.00 | 46 | 1011.1 |
| 20260506010033 | 50 | 292 | 4.3 | 12.2 | 0.00 | 0.00 | 0.00 | 46 | 1010.8 |
| 20260506004516 | 50 | 250 | 9.6 | 14.8 | 0.00 | 0.00 | 0.00 | 44 | 1010.6 |
| 20260506003015 | 51 | 278 | 10.4 | 14.8 | 0.00 | 0.00 | 0.00 | 44 | 1010.5 |
| 20260506001514 | 51 | 275 | 9.6 | 13.9 | 0.00 | 0.00 | 0.00 | 42 | 1010.5 |
| 20260506000013 | 51 | 265 | 7.0 | 13.0 | 0.00 | 0.00 | 0.00 | 44 | 1010.3 |
| 20260505234531 | 51 | 286 | 7.0 | 12.2 | 0.00 | 0.00 | 0.00 | 43 | 1010.2 |
| 20260505233012 | 52 | 266 | 9.6 | 14.8 | 0.00 | 0.00 | 0.00 | 46 | 1010.2 |
| 20260505231512 | 52 | 270 | 7.8 | 13.0 | 0.00 | 0.00 | 0.00 | 47 | 1010.1 |
| 20260505230011 | 52 | 266 | 8.7 | 17.4 | 0.00 | 0.00 | 0.00 | 44 | 1010.2 |
| 20260505224511 | 52 | 235 | 9.6 | 14.8 | 0.00 | 0.00 | 0.00 | 43 | 1010.1 |
| 20260505223010 | 52 | 299 | 7.0 | 13.9 | 0.00 | 0.00 | 0.00 | 44 | 1010.0 |
| 20260505221609 | 52 | 298 | 6.1 | 12.2 | 0.00 | 0.00 | 0.00 | 43 | 1009.9 |
| 20260505220009 | 52 | 281 | 9.6 | 13.9 | 0.00 | 0.00 | 0.00 | 45 | 1010.0 |
| 20260505214509 | 52 | 264 | 10.4 | 14.8 | 0.00 | 0.00 | 0.00 | 44 | 1010.1 |
| 20260505213008 | 52 | 284 | 9.6 | 15.6 | 0.00 | 0.00 | 0.00 | 44 | 1010.2 |
| 20260505211506 | 53 | 252 | 10.4 | 14.8 | 0.00 | 0.00 | 0.00 | 47 | 1010.2 |
| 20260505210006 | 53 | 273 | 9.6 | 15.6 | 0.00 | 0.00 | 0.00 | 45 | 1010.0 |
| 20260505204506 | 52 | 250 | 11.3 | 16.5 | 0.00 | 0.00 | 0.00 | 46 | 1010.1 |
| 20260505203013 | 53 | 247 | 10.4 | 13.9 | 0.00 | 0.00 | 0.00 | 46 | 1010.3 |
| 20260505201504 | 53 | 248 | 12.2 | 14.8 | 0.00 | 0.00 | 0.00 | 46 | 1010.3 |
| 20260505200004 | 54 | 296 | 3.5 | 16.5 | 0.00 | 0.00 | 0.00 | 43 | 1010.3 |
| 20260505194503 | 54 | 286 | 7.8 | 14.8 | 0.00 | 0.00 | 0.00 | 43 | 1010.4 |
| 20260505193000 | 53 | 240 | 4.3 | 15.6 | 0.00 | 0.00 | 0.00 | 39 | 1010.4 |
| 20260505191600 | 53 | 273 | 0.9 | 13.0 | 0.00 | 0.00 | 0.00 | 36 | 1010.5 |
| 20260505190059 | 54 | 265 | 0.9 | 7.0 | 0.00 | 0.00 | 0.00 | 39 | 1010.6 |
| 20260505184556 | 52 | 265 | 0.9 | 13.9 | 0.00 | 0.00 | 0.00 | 41 | 1010.7 |
| 20260505183056 | 51 | 250 | 4.3 | 17.4 | 0.00 | 0.00 | 0.00 | 40 | 1010.6 |